Regional Weather Roundup
Issued by NWS Pendleton, OR

Home | Current Version | Previous Version | Text Only | Print | Product List | Glossary On
Versions: 1 2 3 4 5 6 7 8 9 10 11 12 13 14 15 16 17 18 19 20 21 22 23 24 25 26 27 28 29 30 31 32 33 34 35 36 37 38 39 40 41 42 43 44 45 46 47 48 49 50
000
ASUS46 KPDT 260710
RWRPDT
PENDLETON REGIONAL WEATHER ROUNDUP
NATIONAL WEATHER SERVICE PENDLETON OREGON
1200 AM PDT WED JUL 26 2017

NOTE: FAIR INDICATES FEW OR NO CLOUDS BELOW 12,000 FEET WITH NO
SIGNIFICANT WEATHER AND/OR OBSTRUCTIONS TO VISIBILITY.

# INDICATES UNOFFICIAL STATION AND DATA

WAZ520-260810-
EAST SLOPES OF WASHINGTON CASCADES

CITY            SKY/WX      TMP DP  RH  WIND    PRES   REMARKS
#BULLFROG       N/A         70  51  51  W5      N/A
#CLE ELUM HS    N/A         69  50  51  CALM    29.96R
#CLE ELUM LAKE  N/A         65  50  58  CALM    30.05S
#EASTON DOT     N/A         67  48  50  N1      N/A
#ELK HTS DOT    N/A         70  70  100 CALM    N/A
#GLENWOOD       N/A         61  56  84  CALM    29.90R
#NELSON 3SW     N/A         61  42  50  CALM    30.12R
#NILE           N/A         70  52  53  CALM    29.24R
#TEANAWAY 4NE   N/A         64  51  63  SW3     N/A
#TROUT LAKE 1NE N/A         63  56  78  CALM    29.90S
#TROUT LAKE 1E  N/A         67  53  61  CALM    30.03R
$$

WAZ521-260810-
SIMCOE HIGHLANDS

CITY            SKY/WX      TMP DP  RH  WIND    PRES   REMARKS
#BICKLETON HS   N/A         64  45  50  W3      29.96F
#CENTERVILLE 1SWN/A         74  54  50  N1      29.83R
#GOLDENDALE 1NE N/A         71  40  32  CALM    N/A
#GOLDENDALE 4W  N/A         72  22  15  N5      30.01R
#GOODNOE HILLS  N/A         78  55  45  W7      N/A
#LYLE 6NE       N/A         74  57  55  SW2     29.90R
#PITT 4SE       N/A         67  54  63  SW1     29.91R
$$

WAZ026-260810-
KITTITAS VALLEY

CITY            SKY/WX      TMP DP  RH  WIND    PRES   REMARKS
ELLENSBURG AP   MOCLDY      73  50  44  NW14    29.99R
#ELLENSBURG CWU N/A         73  50  44  NW7     29.83S
#ELLENSBURG 3NE N/A         72  52  49  N3      28.06R
#ELLENSBURG 1E  N/A         73  49  43  NW1     29.92R
#KITTITAS 3S    N/A         65  53  65  CALM    29.89R
#MANASTASH RDG  N/A         70  70  100 N5      N/A
#ROCKY CYN DOT  N/A         71  52  51  W8      N/A
#RYEGRASS DOT   N/A         68  48  49  W12     N/A
$$

WAZ027-260810-
YAKIMA VALLEY

CITY            SKY/WX      TMP DP  RH  WIND    PRES   REMARKS
SUNNYSIDE AP    N/A         63  55  75  N3      29.91R
YAKIMA AIRPORT  MOCLDY      81  49  33  NW7     29.95R
YAKIMA-VAGABOND CLEAR       75  42  31  E10     29.94S
#DONALD 2NE     N/A         89  26  10  SE6     28.78S
#GRANDVIEW      N/A         72  48  43  CALM    29.88R
#MABTON         N/A         71  58  64  CALM    29.89R
#MOXEE 2E       N/A         74  N/A N/A CALM    29.88R
#NACHES 2SW     N/A         75  51  43  W7      29.98S
#OUTLOOK DOT    N/A         73  51  46  CALM    29.87F
#PARKER DOT     N/A         79  47  32  S8      29.92S
#TERRACE HTS    N/A         74  51  44  CALM    29.85R
#TOPPENISH      N/A         73  52  48  CALM    29.79S
#I82 S UMTANUM RN/A         73  47  40  NE6     N/A
#UNION GAP DOT  N/A         80  45  29  N5      29.96R
#W YAKIMA       N/A         75  51  43  CALM    29.88S
#WHITE SWAN 5E  N/A         72  54  53  CALM    29.88R
#WILEY CITY 3W  N/A         65  47  52  CALM    29.94R
#ZILLAH DOT     N/A         70  51  51  CALM    N/A
$$

WAZ028-260810-
LOWER COLUMBIA BASIN...WASHINGTON

CITY            SKY/WX      TMP DP  RH  WIND    PRES   REMARKS
PASCO           MOCLDY      66  59  78  NW3     29.88S
PROSSER AWOS    N/A         68  54  61  CALM    29.93S
RICHLAND AWOS   MOCLDY      73  55  53  CALM    29.88S
#BENTON CITY    N/A         74  45  35  CALM    29.77R
#CONNELL 5N     N/A         66  45  47  CALM    29.86R
#CONNELL 5NW    N/A         62  48  60  CALM    29.82R
#ELTOPIA 6NW    N/A         75  52  45  CALM    28.88R
#KAHLOTUS       N/A         77  45  32  CALM    29.85R
#KENNEWICK 3S   N/A         82  44  26  CALM    29.85S
#PATERSON       N/A         74  51  44  CALM    29.85R
#PROSSER DOT    N/A         69  53  57  CALM    29.91R
#SAGEMOOR 2W    N/A         76  52  43  N2      29.72S
#TOUCHET 2S     N/A         62  49  62  CALM    29.85R
#WEST PASCO     N/A         73  53  49  CALM    29.87R
$$

WAZ029-260810-
FOOTHILLS OF THE BLUES...WASHINGTON

CITY            SKY/WX      TMP DP  RH  WIND    PRES   REMARKS
WALLA WALLA AP  MOCLDY      75  45  34  E7      29.93R
#CLYDE 6NW      N/A         66  44  45  CALM    29.85R
#DAYTON SCHOOL  N/A         68  38  33  N2      29.97R
#DELANEY DOT    N/A         70  40  34  S5      29.93R
#LOWDEN 2SE     N/A         66  51  58  CALM    29.86R
#PLEASANT VIEW 1N/A         80  43  27  CALM    29.88R
#PRESCOTT       N/A         65  46  50  CALM    29.86R
#WHITMAN COLLEGEN/A         76  48  37  CALM    29.91R
#WAITSBURG 5S   N/A         72  42  34  CALM    29.95R
#WAITSBURG 6SSE N/A         69  42  37  SE3     29.91R
#WALLA WALLA 5E N/A         70  44  39  NE2     N/A
#WHITMAN MISSIONN/A         66  53  63  CALM    29.88R
$$

WAZ030-260810-
BLUE MOUNTAINS...WASHINGTON

CITY            SKY/WX      TMP DP  RH  WIND    PRES   REMARKS
#DIXIE 5SE      N/A         76  40  27  E6      29.96S
$$

ORZ009-041-WAZ024-260810-
COLUMBIA RIVER GORGE

CITY            SKY/WX      TMP DP  RH  WIND    PRES   REMARKS
HOOD RIVER AP   MOCLDY      72  55  55  CALM    29.95R
THE DALLES AP   PTCLDY      81  57  44  NW14    29.90R
#ARLINGTON AIRPON/A         78  55  45  W9      29.86S
#CELILO DOT     N/A         84  56  38  S2      N/A
#LYLE           N/A         79  60  52  W13     29.91R
#MARYHILL       N/A         79  52  39  N5      29.78R
#RUFUS DOT      N/A         85  N/A N/A W10     N/A
#SMITHVILLE     N/A         81  56  42  N13     29.88R

$$

ORZ510-260810-
NORTH CENTRAL OREGON

CITY            SKY/WX      TMP DP  RH  WIND    PRES   REMARKS
#ANTELOPE       N/A         66  42  42  CALM    29.74R
#CHENOWITH 1W   N/A         72  55  55  NW20    N/A
#COW CYN RST AREN/A         74  43  33  NW2     N/A
#DUFUR          N/A         63  51  65  W1      29.86R
#DUFUR 9E       N/A         74  50  43  W2      29.92R
#GRASS VALLEY 1SN/A         72  49  44  CALM    30.03R
#KENT DOT       N/A         71  49  46  N2      N/A
#MAUPIN SCHOOL  N/A         77  51  40  CALM    30.00R
#MORO SCHOOL    N/A         74  56  53  W10     29.96R
#SHANIKO 5WSW   N/A         72  46  39  N8      N/A
#SHANIKO 4NW    N/A         70  47  44  VRB7    30.08R
#TYGH VALLEY 2NEN/A         73  51  46  N1      29.87R
#WAPANITIA AIRPON/A         72  51  48  W5      29.90R
#WASCO 5NE      N/A         74  54  50  W2      29.86R
$$

ORZ511-260810-
CENTRAL OREGON

CITY            SKY/WX      TMP DP  RH  WIND    PRES   REMARKS
MADRAS AIRPORT  PTCLDY      68  43  40  W3      30.06R
PRINEVILLE AP   CLOUDY      72  45  38  W8      30.09R
REDMOND AIRPORT MOCLDY      74  53  48  SW3     30.07S
#ASHWOOD SCHOOL N/A         66  34  30  CALM    30.00R
#BEND 1SW       N/A         69  57  66  SW1     N/A
#BEND-AWBREY    N/A         70  57  63  S3      29.88S
#BEND-KIM LN    N/A         66  54  65  CALM    29.83R
#CULVER         N/A         69  47  45  CALM    29.83R
#CULVER 8W      N/A         70  53  55  CALM    30.07R
#LAKE BILLY CHINN/A         74  N/A N/A E5      29.98R
#MADRAS 4S      N/A         71  19  14  S3      N/A
#POWELL BUTTE   N/A         74  52  46  S3      30.04S
#PRINEVILLE     N/A         70  45  41  CALM    29.97R
#PRINEVILLE 3N  N/A         66  48  52  S2      29.97R
#WARM SPRINGS   N/A         77  49  37  CALM    29.78R

$$


ORZ509-260810-
EAST SLOPES OF OREGON CASCADES

CITY            SKY/WX      TMP DP  RH  WIND    PRES   REMARKS
SISTERS AWOS    N/A         70  55  59  CALM    N/A
#BLUE BOX PASS  N/A         62  N/A N/A NW2     N/A
#CAMP SHERMAN   N/A         64  52  65  CALM    29.95R
#LA PINE 4NW    N/A         61  54  78  CALM    29.94S
#LAVA BUTTE DOT N/A         66  52  61  S1      N/A
#SISTERS ODOT   N/A         65  53  65  CALM    N/A
#SISTERS 3N     N/A         65  52  63  CALM    29.98S
#SUNRIVER       N/A         66  57  73  CALM    30.05F
#TUMALO 3W      N/A         72  55  55  CALM    29.75S
#WANOGA BUTTE D N/A         61  51  70  W3      N/A

$$

ORZ044-260810-
LOWER COLUMBIA BASIN...OREGON

CITY            SKY/WX      TMP DP  RH  WIND    PRES   REMARKS
HERMISTON       PTCLDY      70  40  34  SE6     29.89R
#BOARDMAN SCHOOLN/A         72  49  44  CALM    29.87R
#BOARDMAN 8SW   N/A         78  43  29  SW5     29.86R
#ECHO 8SW       N/A         67  44  43  SW1     29.91S
#I-84 EX 198 DOTN/A         76  47  36  NE10    N/A
#IONE SCHOOL    N/A         70  39  32  CALM    29.89R
#UMATILLA       N/A         71  51  49  CALM    29.80R
$$

ORZ507-260810-
NORTHERN FOOTHILLS OF THE BLUES

CITY            SKY/WX      TMP DP  RH  WIND    PRES   REMARKS
PENDLETON AIRPT MOCLDY      67  39  36  E7      29.94S
#ADAMS 3WNW     N/A         62  38  41  CALM    29.88R
#ATHENA         N/A         60  42  51  CALM    29.91S
#CAYUSE         N/A         74  46  37  E10     29.85S
#HELIX SCHOOL   N/A         64  39  40  CALM    29.88S
#HELIX 3N       N/A         71  37  29  CALM    29.94S
#HOLDMAN 6E     N/A         72  41  33  CALM    29.68S
#M-F GROVE ELEM N/A         74  40  29  W1      29.90S
#M-FREEWATER 5SEN/A         73  49  43  NE5     29.94R
#PENDLETON DNTN N/A         70  37  30  E2      29.92S
#PDT AQUATIC CTRN/A         68  38  33  CALM    29.93S
#PDT SUNRIDGE   N/A         68  43  40  CALM    29.95R
#PENDLETON 7NW  N/A         67  42  40  E1      29.96S
#PILOT ROCK 1S  N/A         70  37  30  S6      29.98S
#PILOT ROCK     N/A         68  38  33  CALM    29.99S
#TUTUILLA       N/A         63  45  52  CALM    30.00R
#UMAPINE 2E     N/A         70  48  46  SE5     29.87S
#WESTON SCHOOL  N/A         69  39  33  CALM    29.88R

$$

ORZ508-260810-
SOUTHERN FOOTHILLS OF THE BLUES

CITY            SKY/WX      TMP DP  RH  WIND    PRES   REMARKS
LEXINGTON       MOCLDY      72  37  28  SE13    29.99R
#AJAX           N/A         75  46  36  S5      30.15R
#CONDON 5W      N/A         68  44  42  CALM    30.05R
#FOSSIL SCHOOL  N/A         65  37  35  CALM    29.98R
#HEPPNER EOC    N/A         69  39  33  SE7     29.82R
#HEPPNER 4NE    N/A         69  39  33  SE2     29.88R
#LEXINGTON 2SE  N/A         70  41  35  SE7     29.93R
#MIKKALO        N/A         72  44  37  S1      30.09S
#OLEX 4N        N/A         74  47  38  SW6     29.91S
#RUGGS 5NE      N/A         66  33  29  CALM    30.20S
#RUGGS 2SW      N/A         71  36  28  S7      29.89R

$$

ORZ502-503-260810-
BLUE MOUNTAINS

CITY            SKY/WX      TMP DP  RH  WIND    PRES   REMARKS
MEACHAM         MOCLDY      53  40  61  CALM    30.09S
#BATTLE MTN DOT N/A         62  36  38  N1      N/A
#GRANITE        N/A         55  27  34  CALM    29.80R
#HEPPNER 15SE   N/A         58  39  49  CALM    29.94R
#LADD CYN SMT   N/A         63  40  43  N1      N/A
#LADD CREEK ODOTN/A         67  41  39  SW2     N/A
#LONG CREEK HS  N/A         66  39  37  CALM    N/A
#N POWDER DOT   N/A         64  44  48  CALM    N/A
#PIKES PEAK     N/A         76  40  27  CALM    27.99S
#TOLLGATE       N/A         59  39  47  CALM    30.00R
#TROY SCHOOL    N/A         66  48  52  CALM    29.74R
#UKIAH          N/A         56  40  55  CALM    29.85R
#WESTON 4E      N/A         69  40  35  E1      29.84S
$$

ORZ505-260810-
JOHN DAY BASIN

CITY            SKY/WX      TMP DP  RH  WIND    PRES   REMARKS
JOHN DAY        MOCLDY      73  33  23  CALM    30.08R
#JOHN DAY KJDY  N/A         70  N/A N/A CALM    30.49F
#ANTELOPE 9ESE  N/A         74  36  25  CALM    N/A
#DAYVILLE SCHOOLN/A         75  34  22  CALM    29.98R
#MITCHELL       N/A         68  40  36  CALM    30.22R
#MITCHELL 8NW   N/A         75  34  22  S2      29.91R
#MONUMENT HS    N/A         69  42  37  CALM    29.95R
#MT. VERNON 5SE N/A         69  35  28  CALM    30.04R
#SPRAY SCHOOL   N/A         67  N/A N/A CALM    N/A
$$

ORZ506-260810-
OCHOCO AND JOHN DAY HIGHLANDS

CITY            SKY/WX      TMP DP  RH  WIND    PRES   REMARKS
#HORSE RIDGE DO N/A         69  45  42  S10     N/A
#IZEE 6NW       N/A         71  43  36  E1      N/A
#PAULINA ODOT   N/A         74  45  35  SW9     N/A
#PINE MTN OBS   N/A         60  45  58  S12     N/A
#SENECA         N/A         71  N/A N/A S6      N/A
#SENECA 9NW     N/A         63  35  35  CALM    29.86R
$$

ORZ049-260810-
GRANDE RONDE VALLEY

CITY            SKY/WX      TMP DP  RH  WIND    PRES   REMARKS
LA GRANDE       PTCLDY      66  39  37  N9      30.01S
#COVE           N/A         65  48  54  N3      30.05R
#COVE SCHOOL    N/A         64  45  50  CALM    30.04R
#COVE 6NW       N/A         64  44  48  W1      29.88S
#ELGIN 3N       N/A         61  39  44  CALM    30.00R
#ELGIN 1E       N/A         63  44  50  CALM    N/A
#IMBLER SCHOOL  N/A         69  42  37  CALM    29.98S
#ISLAND CITY 4N N/A         66  55  68  CALM    30.00R
#LA GRANDE-LEFFEN/A         71  41  34  W3      30.03R
#UNION 1S       N/A         68  48  49  CALM    29.87S
$$

ORZ050-260810-
WALLOWA COUNTY

CITY            SKY/WX      TMP DP  RH  WIND    PRES   REMARKS
JOSEPH AIRPORT  PTCLDY      63  34  34  S7      30.12S
#ENTERPRISE HS  N/A         58  44  60  CALM    29.79R
#IMNAHA SCHOOL  N/A         73  38  28  SE1     29.97R
#IMNAHA 10S     N/A         70  35  28  SW5     30.02R
#JOSEPH         N/A         62  40  44  CALM    30.04S
#JOSEPH 3N      N/A         54  42  64  CALM    30.12R
#JOSEPH 3W      N/A         65  39  38  SW2     N/A
#LOSTINE        N/A         62  42  48  E1      29.71R
#LOSTINE 3SE    N/A         58  40  51  SW2     30.12S
#MT HOWARD 8000 N/A         57  29  34  CALM    30.38S
#PROMISE 1S     N/A         64  38  38  S2      29.95F
#WALLOWA LAKE   N/A         63  37  38  SW1     30.16S
#WALLOWA SCHOOL N/A         60  46  60  CALM    30.00R



$$



USA.gov is the U.S. government's official web portal to all federal, state and local government web resources and services.